Time,TemperatureF,DewpointF,PressureIn,WindDirection,WindDirectionDegrees,WindSpeedMPH,WindSpeedGustMPH,Humidity,HourlyPrecipIn,Conditions,Clouds,dailyrainin,SoftwareType,DateUTC
2013-02-16 00:02:00,33.0,33.0,-100.00,West,275,1.0,2.0,99,0.00,,,-99.99,,2013-02-16 05:02:00,
2013-02-16 00:12:00,33.0,33.0,-100.00,West,265,1.0,1.0,99,0.00,,,-99.99,,2013-02-16 05:12:00,
2013-02-16 00:22:00,33.0,33.0,-100.00,West,265,1.0,1.0,99,0.00,,,-99.99,,2013-02-16 05:22:00,
2013-02-16 00:32:00,33.0,33.0,-100.00,South,190,2.0,3.0,99,0.00,,,-99.99,,2013-02-16 05:32:00,
2013-02-16 00:42:00,33.0,33.0,-100.00,South,175,3.0,5.0,99,0.00,,,-99.99,,2013-02-16 05:42:00,
2013-02-16 00:52:00,33.0,33.0,-100.00,South,175,3.0,5.0,99,0.00,,,-99.99,,2013-02-16 05:52:00,
2013-02-16 01:02:00,33.0,33.0,-100.00,East,80,1.0,3.0,99,0.00,,,-99.99,,2013-02-16 06:02:00,
2013-02-16 01:11:00,33.0,33.0,-100.00,ESE,105,2.0,4.0,99,0.00,,,-99.99,,2013-02-16 06:11:00,
2013-02-16 01:21:00,33.0,33.0,-100.00,ESE,105,2.0,4.0,99,0.00,,,-99.99,,2013-02-16 06:21:00,
2013-02-16 01:32:00,33.0,33.0,-100.00,ESE,110,1.0,2.0,99,0.00,,,-99.99,,2013-02-16 06:32:00,
2013-02-16 01:42:00,33.0,33.0,-100.00,ESE,120,0.0,2.0,99,0.00,,,-99.99,,2013-02-16 06:42:00,
2013-02-16 01:52:00,33.0,33.0,-100.00,ESE,120,0.0,2.0,99,0.00,,,-99.99,,2013-02-16 06:52:00,
2013-02-16 02:02:00,33.0,33.0,-100.00,North,10,1.0,1.0,99,0.00,,,-99.99,,2013-02-16 07:02:00,
2013-02-16 02:11:00,33.0,33.0,-100.00,North,10,0.0,0.0,99,0.00,,,-99.99,,2013-02-16 07:11:00,
2013-02-16 02:21:00,33.0,33.0,-100.00,North,10,0.0,0.0,99,0.00,,,-99.99,,2013-02-16 07:21:00,
2013-02-16 02:32:00,33.0,32.0,-100.00,West,280,0.0,1.0,99,0.00,,,-99.99,,2013-02-16 07:32:00,
2013-02-16 02:42:00,33.0,33.0,-100.00,WSW,255,2.0,4.0,99,0.00,,,-99.99,,2013-02-16 07:42:00,
2013-02-16 02:52:00,33.0,33.0,-100.00,WSW,255,2.0,4.0,99,0.00,,,-99.99,,2013-02-16 07:52:00,
2013-02-16 03:01:00,33.0,32.0,-100.00,WNW,285,1.0,2.0,99,0.00,,,-99.99,,2013-02-16 08:01:00,
2013-02-16 03:11:00,33.0,32.0,-100.00,NNE,15,1.0,2.0,99,0.00,,,-99.99,,2013-02-16 08:11:00,
2013-02-16 03:21:00,33.0,32.0,-100.00,NNE,15,1.0,2.0,99,0.00,,,-99.99,,2013-02-16 08:21:00,
2013-02-16 03:32:00,33.0,32.0,-100.00,NNE,25,2.0,7.0,99,0.00,,,-99.99,,2013-02-16 08:32:00,
2013-02-16 03:42:00,33.0,33.0,-100.00,NNW,345,6.0,10.0,99,0.04,,,-99.99,,2013-02-16 08:42:00,
2013-02-16 03:52:00,33.0,33.0,-100.00,NNE,15,4.0,8.0,99,0.00,,,-99.99,,2013-02-16 08:52:00,
2013-02-16 04:02:00,33.0,33.0,-100.00,NNE,15,4.0,8.0,99,0.00,,,-99.99,,2013-02-16 09:02:00,
2013-02-16 04:11:00,33.0,32.0,-100.00,NNW,335,3.0,6.0,98,0.00,,,-99.99,,2013-02-16 09:11:00,
2013-02-16 04:21:00,33.0,32.0,-100.00,NNW,335,3.0,6.0,98,0.00,,,-99.99,,2013-02-16 09:21:00,
2013-02-16 04:32:00,32.0,32.0,-100.00,North,0,2.0,6.0,98,0.00,,,-99.99,,2013-02-16 09:32:00,
2013-02-16 04:42:00,32.0,32.0,-100.00,NNW,340,2.0,4.0,98,0.00,,,-99.99,,2013-02-16 09:42:00,
2013-02-16 04:51:00,32.0,32.0,-100.00,NNW,340,2.0,4.0,98,0.00,,,-99.99,,2013-02-16 09:51:00,
2013-02-16 05:01:00,32.0,32.0,-100.00,North,0,2.0,5.0,98,0.00,,,-99.99,,2013-02-16 10:01:00,
2013-02-16 05:11:00,32.0,32.0,-100.00,North,0,2.0,3.0,98,0.00,,,-99.99,,2013-02-16 10:11:00,
2013-02-16 05:21:00,32.0,32.0,-100.00,North,0,2.0,3.0,98,0.00,,,-99.99,,2013-02-16 10:21:00,
2013-02-16 05:32:00,32.0,31.0,-100.00,North,0,2.0,4.0,98,0.00,,,-99.99,,2013-02-16 10:32:00,
2013-02-16 05:42:00,32.0,32.0,-100.00,NE,35,2.0,3.0,98,0.00,,,-99.99,,2013-02-16 10:42:00,
2013-02-16 05:51:00,32.0,32.0,-100.00,NE,35,2.0,3.0,98,0.00,,,-99.99,,2013-02-16 10:51:00,
2013-02-16 06:02:00,32.0,32.0,-100.00,North,0,4.0,7.0,98,0.00,,,-99.99,,2013-02-16 11:02:00,
2013-02-16 06:11:00,32.0,31.0,-100.00,North,0,4.0,9.0,98,0.00,,,-99.99,,2013-02-16 11:11:00,
2013-02-16 06:22:00,32.0,31.0,-100.00,North,0,4.0,9.0,98,0.00,,,-99.99,,2013-02-16 11:22:00,
2013-02-16 06:32:00,32.0,31.0,-100.00,NNE,30,4.0,7.0,98,0.00,,,-99.99,,2013-02-16 11:32:00,
2013-02-16 06:42:00,32.0,31.0,-100.00,NE,45,4.0,7.0,96,0.00,,,-99.99,,2013-02-16 11:42:00,
2013-02-16 06:52:00,32.0,30.0,-100.00,NNE,20,4.0,7.0,92,0.00,,,-99.99,,2013-02-16 11:52:00,
2013-02-16 07:02:00,32.0,30.0,-100.00,NNE,20,4.0,7.0,92,0.00,,,-99.99,,2013-02-16 12:02:00,
2013-02-16 07:12:00,32.0,29.0,-100.00,North,10,3.0,7.0,89,0.00,,,-99.99,,2013-02-16 12:12:00,
2013-02-16 07:22:00,32.0,29.0,-100.00,North,10,3.0,7.0,89,0.00,,,-99.99,,2013-02-16 12:22:00,
2013-02-16 07:32:00,31.0,29.0,-100.00,NE,35,1.0,4.0,89,0.00,,,-99.99,,2013-02-16 12:32:00,
2013-02-16 07:42:00,32.0,29.0,-100.00,NE,40,2.0,4.0,89,0.00,,,-99.99,,2013-02-16 12:42:00,
2013-02-16 07:52:00,32.0,29.0,-100.00,NE,40,2.0,4.0,89,0.00,,,-99.99,,2013-02-16 12:52:00,
2013-02-16 08:02:00,31.0,29.0,-100.00,NW,315,1.0,6.0,89,0.00,,,-99.99,,2013-02-16 13:02:00,
2013-02-16 08:12:00,32.0,29.0,-100.00,WNW,300,0.0,2.0,89,0.00,,,-99.99,,2013-02-16 13:12:00,
2013-02-16 08:21:00,32.0,29.0,-100.00,NW,315,1.0,2.0,89,0.00,,,-99.99,,2013-02-16 13:21:00,
2013-02-16 08:32:00,32.0,29.0,-100.00,NW,315,1.0,2.0,89,0.00,,,-99.99,,2013-02-16 13:32:00,
2013-02-16 08:41:00,32.0,29.0,-100.00,NNE,20,3.0,4.0,89,0.00,,,-99.99,,2013-02-16 13:41:00,
2013-02-16 08:51:00,33.0,29.0,-100.00,North,0,2.0,6.0,87,0.00,,,-99.99,,2013-02-16 13:51:00,
2013-02-16 09:01:00,33.0,29.0,-100.00,North,0,2.0,6.0,87,0.00,,,-99.99,,2013-02-16 14:01:00,
2013-02-16 09:11:00,33.0,29.0,-100.00,North,0,2.0,6.0,86,0.00,,,-99.99,,2013-02-16 14:11:00,
2013-02-16 09:21:00,33.0,27.0,-100.00,NNE,15,4.0,7.0,80,0.00,,,-99.99,,2013-02-16 14:21:00,
2013-02-16 09:32:00,33.0,27.0,-100.00,NNE,15,4.0,7.0,80,0.00,,,-99.99,,2013-02-16 14:32:00,
2013-02-16 09:41:00,33.0,28.0,-100.00,NNE,15,2.0,6.0,81,0.00,,,-99.99,,2013-02-16 14:41:00,
2013-02-16 09:52:00,33.0,28.0,-100.00,NNE,15,2.0,6.0,81,0.00,,,-99.99,,2013-02-16 14:52:00,
2013-02-16 10:02:00,33.0,27.0,-100.00,NNW,330,6.0,10.0,77,0.00,,,-99.99,,2013-02-16 15:02:00,
2013-02-16 10:11:00,34.0,27.0,-100.00,NNW,330,6.0,8.0,76,0.00,,,-99.99,,2013-02-16 15:11:00,
2013-02-16 10:22:00,34.0,27.0,-100.00,NNW,330,6.0,8.0,76,0.00,,,-99.99,,2013-02-16 15:22:00,
2013-02-16 10:32:00,34.0,26.0,-100.00,North,10,5.0,9.0,73,0.00,,,-99.99,,2013-02-16 15:32:00,
2013-02-16 10:42:00,34.0,25.0,-100.00,North,10,6.0,9.0,71,0.00,,,-99.99,,2013-02-16 15:42:00,
2013-02-16 10:52:00,34.0,25.0,-100.00,North,10,6.0,9.0,71,0.00,,,-99.99,,2013-02-16 15:52:00,
2013-02-16 11:01:00,35.0,26.0,-100.00,North,0,4.0,7.0,72,0.00,,,-99.99,,2013-02-16 16:01:00,
2013-02-16 11:11:00,35.0,25.0,-100.00,North,5,7.0,12.0,68,0.00,,,-99.99,,2013-02-16 16:11:00,
2013-02-16 11:21:00,35.0,25.0,-100.00,North,5,7.0,12.0,68,0.00,,,-99.99,,2013-02-16 16:21:00,
2013-02-16 11:32:00,35.0,23.0,-100.00,North,10,6.0,11.0,63,0.00,,,-99.99,,2013-02-16 16:32:00,
2013-02-16 11:42:00,35.0,23.0,-100.00,NNE,15,5.0,10.0,62,0.00,,,-99.99,,2013-02-16 16:42:00,
2013-02-16 11:52:00,35.0,22.0,-100.00,NNE,15,9.0,13.0,61,0.00,,,-99.99,,2013-02-16 16:52:00,
2013-02-16 12:01:00,35.0,22.0,-100.00,NNE,15,9.0,13.0,61,0.00,,,-99.99,,2013-02-16 17:01:00,
2013-02-16 12:11:00,35.0,21.0,-100.00,NNE,20,6.0,11.0,57,0.00,,,-99.99,,2013-02-16 17:11:00,
2013-02-16 12:22:00,35.0,21.0,-100.00,NNE,20,6.0,11.0,57,0.00,,,-99.99,,2013-02-16 17:22:00,
2013-02-16 12:32:00,34.0,21.0,-100.00,NNE,15,7.0,13.0,58,0.00,,,-99.99,,2013-02-16 17:32:00,
2013-02-16 12:42:00,34.0,20.0,-100.00,NNE,20,6.0,12.0,57,0.00,,,-99.99,,2013-02-16 17:42:00,
2013-02-16 12:52:00,35.0,21.0,-100.00,NW,325,6.0,12.0,57,0.00,,,-99.99,,2013-02-16 17:52:00,
2013-02-16 13:02:00,35.0,21.0,-100.00,NW,325,6.0,12.0,57,0.00,,,-99.99,,2013-02-16 18:02:00,
2013-02-16 13:11:00,36.0,22.0,-100.00,North,0,7.0,13.0,56,0.00,,,-99.99,,2013-02-16 18:11:00,
2013-02-16 13:21:00,35.0,21.0,-100.00,North,350,8.0,13.0,56,0.00,,,-99.99,,2013-02-16 18:21:00,
2013-02-16 13:33:00,35.0,21.0,-100.00,North,350,8.0,13.0,56,0.00,,,-99.99,,2013-02-16 18:33:00,
2013-02-16 13:42:00,35.0,21.0,-100.00,NNW,330,7.0,12.0,56,0.00,,,-99.99,,2013-02-16 18:42:00,
2013-02-16 13:51:00,35.0,21.0,-100.00,NNW,330,7.0,12.0,56,0.00,,,-99.99,,2013-02-16 18:51:00,
2013-02-16 14:02:00,35.0,20.0,-100.00,NNW,345,4.0,11.0,55,0.00,,,-99.99,,2013-02-16 19:02:00,
2013-02-16 14:11:00,35.0,19.0,-100.00,NW,310,4.0,10.0,52,0.00,,,-99.99,,2013-02-16 19:11:00,
2013-02-16 14:21:00,35.0,19.0,-100.00,NW,310,4.0,10.0,52,0.00,,,-99.99,,2013-02-16 19:21:00,
2013-02-16 14:32:00,35.0,18.0,-100.00,NNW,335,4.0,12.0,51,0.00,,,-99.99,,2013-02-16 19:32:00,
2013-02-16 14:42:00,35.0,18.0,-100.00,NNW,340,6.0,12.0,51,0.00,,,-99.99,,2013-02-16 19:42:00,
2013-02-16 14:52:00,35.0,18.0,-100.00,NNW,340,6.0,12.0,51,0.00,,,-99.99,,2013-02-16 19:52:00,
2013-02-16 15:01:00,35.0,18.0,-100.00,NW,315,5.0,13.0,49,0.00,,,-99.99,,2013-02-16 20:01:00,
2013-02-16 15:11:00,35.0,16.0,-100.00,NW,315,7.0,12.0,46,0.00,,,-99.99,,2013-02-16 20:11:00,
2013-02-16 15:21:00,35.0,16.0,-100.00,NW,325,7.0,13.0,46,0.00,,,-99.99,,2013-02-16 20:21:00,
2013-02-16 15:32:00,35.0,16.0,-100.00,NW,325,7.0,13.0,46,0.00,,,-99.99,,2013-02-16 20:32:00,
2013-02-16 15:42:00,34.0,15.0,-100.00,NW,325,6.0,14.0,45,0.00,,,-99.99,,2013-02-16 20:42:00,
2013-02-16 15:52:00,34.0,15.0,-100.00,NW,325,6.0,14.0,45,0.00,,,-99.99,,2013-02-16 20:52:00,
2013-02-16 16:02:00,34.0,14.0,-100.00,NNW,335,6.0,14.0,44,0.00,,,-99.99,,2013-02-16 21:02:00,
2013-02-16 16:11:00,33.0,13.0,-100.00,NNW,330,7.0,13.0,43,0.00,,,-99.99,,2013-02-16 21:11:00,
2013-02-16 16:21:00,33.0,13.0,-100.00,NNW,330,7.0,13.0,43,0.00,,,-99.99,,2013-02-16 21:21:00,
2013-02-16 16:32:00,33.0,14.0,-100.00,North,10,5.0,13.0,44,0.00,,,-99.99,,2013-02-16 21:32:00,
2013-02-16 16:42:00,33.0,14.0,-100.00,NNW,340,7.0,13.0,45,0.00,,,-99.99,,2013-02-16 21:42:00,
2013-02-16 16:52:00,33.0,14.0,-100.00,NNW,340,7.0,13.0,45,0.00,,,-99.99,,2013-02-16 21:52:00,
2013-02-16 17:01:00,33.0,13.0,-100.00,NNW,345,8.0,16.0,43,0.00,,,-99.99,,2013-02-16 22:01:00,
2013-02-16 17:11:00,32.0,13.0,-100.00,North,0,6.0,14.0,44,0.00,,,-99.99,,2013-02-16 22:11:00,
2013-02-16 17:21:00,32.0,13.0,-100.00,NNW,340,5.0,12.0,44,0.00,,,-99.99,,2013-02-16 22:21:00,
2013-02-16 17:32:00,32.0,13.0,-100.00,NNW,340,5.0,12.0,44,0.00,,,-99.99,,2013-02-16 22:32:00,
2013-02-16 17:42:00,32.0,13.0,-100.00,NNW,340,6.0,10.0,45,0.00,,,-99.99,,2013-02-16 22:42:00,
2013-02-16 17:51:00,32.0,13.0,-100.00,NNW,345,4.0,10.0,46,0.00,,,-99.99,,2013-02-16 22:51:00,
2013-02-16 18:02:00,32.0,13.0,-100.00,NNW,345,4.0,10.0,46,0.00,,,-99.99,,2013-02-16 23:02:00,
2013-02-16 18:11:00,32.0,13.0,-100.00,NNW,335,4.0,11.0,47,0.00,,,-99.99,,2013-02-16 23:11:00,
2013-02-16 18:21:00,32.0,13.0,-100.00,NNW,335,4.0,11.0,47,0.00,,,-99.99,,2013-02-16 23:21:00,
2013-02-16 18:32:00,31.0,14.0,-100.00,NNW,335,4.0,9.0,48,0.00,,,-99.99,,2013-02-16 23:32:00,
2013-02-16 18:42:00,31.0,13.0,-100.00,NNW,340,4.0,11.0,47,0.00,,,-99.99,,2013-02-16 23:42:00,
2013-02-16 18:52:00,31.0,13.0,-100.00,NNW,330,4.0,12.0,47,0.00,,,-99.99,,2013-02-16 23:52:00,
2013-02-16 19:02:00,31.0,13.0,-100.00,NNW,330,4.0,12.0,47,0.00,,,-99.99,,2013-02-17 00:02:00,
2013-02-16 19:12:00,31.0,13.0,-100.00,NW,325,5.0,12.0,47,0.00,,,-99.99,,2013-02-17 00:12:00,
2013-02-16 19:22:00,31.0,13.0,-100.00,NW,315,7.0,12.0,47,0.00,,,-99.99,,2013-02-17 00:22:00,
2013-02-16 19:32:00,31.0,13.0,-100.00,NW,315,7.0,12.0,47,0.00,,,-99.99,,2013-02-17 00:32:00,
2013-02-16 19:42:00,31.0,13.0,-100.00,NW,320,6.0,12.0,48,0.00,,,-99.99,,2013-02-17 00:42:00,
2013-02-16 19:52:00,31.0,13.0,-100.00,NW,320,6.0,12.0,48,0.00,,,-99.99,,2013-02-17 00:52:00,
2013-02-16 20:01:00,30.0,13.0,-100.00,NW,320,7.0,13.0,48,0.00,,,-99.99,,2013-02-17 01:01:00,
2013-02-16 20:11:00,30.0,13.0,-100.00,NNW,330,6.0,11.0,48,0.00,,,-99.99,,2013-02-17 01:11:00,
2013-02-16 20:21:00,30.0,13.0,-100.00,NNW,330,6.0,11.0,48,0.00,,,-99.99,,2013-02-17 01:21:00,
2013-02-16 20:32:00,30.0,13.0,-100.00,NW,315,6.0,13.0,48,0.00,,,-99.99,,2013-02-17 01:32:00,
2013-02-16 20:41:00,30.0,13.0,-100.00,NW,310,7.0,12.0,48,0.00,,,-99.99,,2013-02-17 01:41:00,
2013-02-16 20:52:00,30.0,13.0,-100.00,NW,310,7.0,12.0,48,0.00,,,-99.99,,2013-02-17 01:52:00,
2013-02-16 21:01:00,30.0,13.0,-100.00,NW,320,6.0,12.0,49,0.00,,,-99.99,,2013-02-17 02:01:00,
2013-02-16 21:11:00,30.0,13.0,-100.00,NW,320,7.0,13.0,50,0.00,,,-99.99,,2013-02-17 02:11:00,
2013-02-16 21:21:00,30.0,13.0,-100.00,NW,320,7.0,13.0,50,0.00,,,-99.99,,2013-02-17 02:21:00,
2013-02-16 21:32:00,30.0,13.0,-100.00,NW,320,6.0,17.0,49,0.00,,,-99.99,,2013-02-17 02:32:00,
2013-02-16 21:42:00,29.0,13.0,-100.00,NW,315,6.0,13.0,51,0.00,,,-99.99,,2013-02-17 02:42:00,
2013-02-16 21:52:00,29.0,13.0,-100.00,NW,315,6.0,13.0,51,0.00,,,-99.99,,2013-02-17 02:52:00,
2013-02-16 22:02:00,29.0,13.0,-100.00,NNW,330,9.0,16.0,52,0.00,,,-99.99,,2013-02-17 03:02:00,
2013-02-16 22:11:00,29.0,14.0,-100.00,NW,315,9.0,15.0,53,0.00,,,-99.99,,2013-02-17 03:11:00,
2013-02-16 22:21:00,29.0,14.0,-100.00,NW,315,9.0,15.0,53,0.00,,,-99.99,,2013-02-17 03:21:00,
2013-02-16 22:32:00,28.0,13.0,-100.00,NW,315,8.0,14.0,54,0.00,,,-99.99,,2013-02-17 03:32:00,
2013-02-16 22:42:00,28.0,14.0,-100.00,NW,325,8.0,16.0,55,0.00,,,-99.99,,2013-02-17 03:42:00,
2013-02-16 22:51:00,28.0,14.0,-100.00,NW,325,8.0,16.0,55,0.00,,,-99.99,,2013-02-17 03:51:00,
2013-02-16 23:01:00,27.0,14.0,-100.00,NW,320,6.0,13.0,56,0.00,,,-99.99,,2013-02-17 04:01:00,
2013-02-16 23:11:00,27.0,14.0,-100.00,NNW,330,6.0,12.0,57,0.00,,,-99.99,,2013-02-17 04:11:00,
2013-02-16 23:21:00,27.0,14.0,-100.00,NNW,330,6.0,12.0,57,0.00,,,-99.99,,2013-02-17 04:21:00,
2013-02-16 23:32:00,27.0,14.0,-100.00,NNW,330,7.0,14.0,57,0.00,,,-99.99,,2013-02-17 04:32:00,
2013-02-16 23:41:00,27.0,14.0,-100.00,NNW,330,7.0,14.0,58,0.00,,,-99.99,,2013-02-17 04:41:00,
2013-02-16 23:51:00,27.0,15.0,-100.00,NNW,335,6.0,12.0,60,0.00,,,-99.99,,2013-02-17 04:51:00,